{"data":{"norad_id":52357,"intl_designator":"2022-045AC","name":"STARLINK-3821","alt_names":[],"object_type":"PAYLOAD","status":"ACTIVE","operator":null,"country":"US","launch_date":"2022-04-29","launch_site_code":"AFETR","launch_vehicle":null,"mission":null,"orbit_class":"UNKNOWN","rcs_meters":null,"size_class":null,"mass_kg":null,"dimensions":null,"purposes":["comms"],"wikipedia_slug":null,"has_3d_model":false,"image_url":null,"decayed_at":null,"tle_current":{"epoch":"2026-09-20T01:36:01.291104Z","epoch_age_seconds":97134,"freshness":"FRESH","line1":"1 52357U 22045AC  26263.06668161 -.00000525  00000+0 -44045-5 0  9993","line2":"2 52357  53.1617  31.5325 0000845  76.9751 283.1346 15.34394827245338","mean_motion":15.34394827,"eccentricity":8.45e-5,"inclination_deg":53.1617,"raan_deg":31.5325,"arg_perigee_deg":76.9751,"mean_anomaly_deg":283.1346,"bstar":-4.4045e-6,"rev_number":24533,"period_min":93.848074476075,"perigee_km":462.14056319695,"apogee_km":463.29666779597,"semimajor_km":6840.8556154965,"source":"CELESTRAK","updated_at":"2026-09-20T09:00:40.025848Z"}}}